TimePDT,TemperatureF,Dew PointF,Humidity,Sea Level PressureIn,VisibilityMPH,Wind Direction,Wind SpeedMPH,Gust SpeedMPH,PrecipitationIn,Events,Conditions,WindDirDegrees,DateUTC
12:56 AM,43.0,19.0,38,29.87,10.0,Calm,Calm,-,N/A,,Clear,0,2012-10-11 07:56:00
1:56 AM,41.0,19.0,41,29.88,10.0,North,3.5,-,N/A,,Clear,10,2012-10-11 08:56:00
2:56 AM,33.1,12.9,43,29.88,10.0,Calm,Calm,-,N/A,,Clear,0,2012-10-11 09:56:00
3:56 AM,33.1,14.0,46,29.88,10.0,Variable,3.5,-,N/A,,Clear,0,2012-10-11 10:56:00
4:56 AM,34.0,18.0,52,29.88,10.0,SE,5.8,-,N/A,,Clear,140,2012-10-11 11:56:00
5:56 AM,37.9,19.9,48,29.88,10.0,NE,5.8,-,N/A,,Clear,50,2012-10-11 12:56:00
6:56 AM,30.9,14.0,50,29.92,10.0,SSE,4.6,-,N/A,,Clear,160,2012-10-11 13:56:00
7:56 AM,37.9,17.1,43,29.95,10.0,South,4.6,-,N/A,,Clear,180,2012-10-11 14:56:00
8:56 AM,50.0,24.1,36,29.92,10.0,ENE,3.5,-,N/A,,Clear,70,2012-10-11 15:56:00
9:56 AM,57.9,21.0,24,29.91,10.0,NE,10.4,-,N/A,,Clear,50,2012-10-11 16:56:00
10:56 AM,63.0,23.0,22,29.89,10.0,NE,8.1,-,N/A,,Clear,50,2012-10-11 17:56:00
11:56 AM,70.0,28.9,22,29.84,10.0,North,8.1,16.1,N/A,,Clear,350,2012-10-11 18:56:00
12:56 PM,73.0,32.0,22,29.82,10.0,North,9.2,-,N/A,,Clear,350,2012-10-11 19:56:00
1:56 PM,75.0,33.1,22,29.79,10.0,Variable,6.9,-,N/A,,Clear,0,2012-10-11 20:56:00
2:56 PM,73.0,32.0,22,29.80,10.0,Calm,Calm,-,N/A,,Mostly Cloudy,0,2012-10-11 21:56:00
3:56 PM,69.1,39.0,33,29.83,8.0,Variable,6.9,27.6,0.00,Rain,Light Rain,0,2012-10-11 22:56:00
4:56 PM,66.9,39.9,37,29.82,10.0,SSE,17.3,23.0,0.00,,Overcast,150,2012-10-11 23:56:00
5:10 PM,66.2,42.8,43,29.87,10.0,SSW,13.8,-,N/A,,Overcast,200,2012-10-12 00:10:00
5:56 PM,64.0,37.9,38,29.80,10.0,SSW,4.6,-,N/A,,Clear,210,2012-10-12 00:56:00
6:56 PM,61.0,42.1,50,29.83,10.0,SSE,6.9,-,N/A,,Mostly Cloudy,160,2012-10-12 01:56:00
7:56 PM,60.1,41.0,49,29.84,10.0,South,11.5,-,N/A,,Mostly Cloudy,170,2012-10-12 02:56:00
8:56 PM,59.0,42.1,53,29.83,10.0,SW,5.8,-,N/A,,Mostly Cloudy,220,2012-10-12 03:56:00
9:56 PM,57.0,41.0,55,29.82,10.0,WSW,3.5,-,N/A,,Mostly Cloudy,240,2012-10-12 04:56:00
10:56 PM,57.0,42.1,57,29.81,10.0,SSE,6.9,-,N/A,,Overcast,150,2012-10-12 05:56:00
11:56 PM,57.0,43.0,59,29.79,10.0,Calm,Calm,-,N/A,,Mostly Cloudy,0,2012-10-12 06:56:00